Location: ????????
(55.0808°N, 38.5463°E)
Time: 03:29:38
(UTC+00:00)

Nimbus 3 Rocket - Pass Details

Date: 23 September 2024
Orbit: 1072 x 1131 km, 99.9° (Epoch: 03 October)

Event Time Altitude Azimuth Distance (km) Brightness Sun altitude
Rises 00:08:09 0° 18° (NNE) 3,921 9.1 -25.1°
Reaches altitude 10° 00:11:22 10° 4° (N) 2,951 8.1 -24.8°
Maximum altitude 00:16:01 21° 319° (NW) 2,242 6.8 -24.3°
Enters shadow 00:18:13 18° 294° (WNW) 2,411 6.8 -24.0°
